Location: Lombard
(41.8800°N, 88.0080°W)
Time: 23:20:58
(UTC-05:00)

Transit 2A - Pass Details

Date: 16 February 2023
Orbit: 591 x 964 km, 66.7° (Epoch: 20 March)

Event Time Altitude Azimuth Distance (km) Brightness Sun altitude
Rises 13:00:05 0° 187° (S) 2,980 10.1 34.5°
Reaches altitude 10° 13:02:23 10° 180° (S) 2,122 9.6 34.4°
Maximum altitude 13:06:52 40° 111° (ESE) 1,077 7.2 34.1°
Drops below altitude 10° 13:11:52 10° 43° (NE) 2,363 8.2 33.8°
Sets 13:14:33 0° 37° (NE) 3,363 8.8 33.7°
